SL-24 R/B, 40047

Orbit data source: Space-Track

SL-24 R/B, 40047 is space debris in SSO originally from a launch on Thu, 19 Jun 2014 UTC launched from the Orenburg, Russia (OREN). Debris objects in space refer to the collection of defunct objects orbiting the Earth. Examples of debris include non-operational satellites, rocket bodies, and fragments generated from explosions, collisions, or faulty payload assembly.

Loading next visibility...
Identifier
40047, 2014-033AP
Orbit
SSO
Country
Flag of CISCIS
Related business
Manufacturer
Yuzhnoe
Mission
Spacecraft
Bus & Motor
15A18-BR, Unknown motor
Mass
~1,000 kg wet, ~1,000 kg dry
Launch date (UTC)
2014-06-19 (11 years ago)
Launch vehicle
Unknown
Launch site
Orenburg, Russia (OREN)
Object type
Payload
Rocket body
Debris
Shape & HBR
Cyl, 1.5 m
Radar Cross Section
10.603 m², Large (>1 m²)

Expand to show TLE details & history
Last TLE update: 8 hours ago

TLE from 8 hours ago
0 SL-24 R/B
1 40047U 14033AP  25290.68294360  .00000055  00000-0  41659-4 0  9991
2 40047  97.8944 189.3106 0566828 222.7095 132.8662 13.61913140563021
Epoch: 2025-10-17T16:23Z
TLE epoch observation values (Epoch: 2025-10-17T16:23:26.327Z)
Latitude
Longitude
-82.9739°
Altitude
1,329.347 km
Speed
7.047 km/s
True Right ascension
12h 37m 14s
True Declination
0° 00' 00"
Sunlit
Object was in daylight at epoch
Visualization orbit readout
Latitude
Unknown
Longitude
Unknown
Altitude
Unknown
Speed
Unknown
Apparent Right ascension
Unknown
Apparent Declination
Unknown
Sunlit
N/A
Visualization observer readout
Local Sidereal Time
19:30:56
Azimuth
Unknown
Elevation
Unknown
Doppler factor
Unknown
Orbital elements
Apogee altitude
1,445.618 km
Perigee altitude
606.251 km
Semi-major axis
7,404.071 km
Eccentricity
0.05668
Inclination
97.8944°
RAAN
189.3106°
Arg. of periapsis
222.7095°
True anomaly
137.40294°
Mean anomaly
132.8662°
Eccentric anomaly
135.15638°
Mean motion
3.40673 °/min
Orbital period
105.67 mins
BSTAR
0.000041659
Loading maneuver chart data...
Computing Atmospheric mass density...
Loading historical data...
Loading historical data...
Loading historical data...
Loading historical data...
Loading historical data...
Loading historical data...
Loading historical data...

Documentation

Showing up to 5 results
|